星链-3935 (STARLINK-3935 )

导读

STARLINK-3935是美国SpaceX公司制造的星链系列通信卫星,于2022年5月13日由猎鹰9号火箭从美国空军西部试验靶场发射升空,进入近地轨道运行。卫星湿重297千克,运行轨道高度约540公里,倾角53.22度,属于星链第一代V1.5批次卫星,承担全球商业互联网通信服务,为偏远地区提供高速低延迟宽带接入。

Basic Information
目录编号:
52549
目录名称:
STARLINK-3935
国际标识:
2022-051S
轨道中心:
EARTH
卫星名称:
星链-3935
卫星全名:
星链-3935 (STARLINK-3935 )
卫星状态:
在轨 (已飞行1575 天)
发射日期:
2022-05-13 UTC
国别 :
美国 (US)
星等 :
--
Orbit Information
数据来源 国际轨道数据 AOE轨道数据
星历时间 2026-09-04T08:04:54+0800
11小时前
查看轨道信息
2026-09-02T09:00:00+0800
2天前
查看轨道信息
半长轴 6837.875km 6837.885km
偏心率 0.0001051 0.0000799
轨道倾角 53.160° 53.163°
近地点辐角 75.066° 50.993°
升交点赤经 39.051° 48.239°
平近点角 285.046° 259.729°
近地点 459.019km 459.201km
远地点 460.457km 460.295km
周期 93.787分钟 93.787分钟
每日圈数 15.353985 15.35395
Detailed Information
固有亮度:
5
最大亮度:
2.5
卫星平台:
Starlink v1.5
覆盖范围:
全球
运营商:
太空探索技术公司
运营商所在国:
美国
制造商(研发单位):
太空探索技术公司
制造商所在国:
美国
使用方式:
暂无
Satellite Introduction
星链(Starlink)计划是由太空探索技术公司(SpaceX)提出的一个巨型低轨卫星互联网星座项目,计划在2019年至2024年间在太空搭建由约1.2万颗卫星组成的“星链”网络,其中1584颗将部署在地球上空550千米处的近地轨道,并从2020年开始工作。该卫星仍在工作。
2D Orbit Map
3D Orbit Map
Orbit Altitude Analysis Chart
Orbit Inclination Analysis Chart
Orbit Comprehensive Analysis Chart
View Comprehensive Chart
Conjunction Data List
Event ID Objects TCA Miss Dist (km) Collision Risk Probability Collision Risk Index (CRI) Action
CDM_260904-184705-254906-827321
2026-09-04T
18:47:06+0000
2.708 km
极远距离
1.371888E-6 低风险 0.38
CDM_260904-170005-254906-477921
2026-09-04T
17:00:49+0000
2.464 km
极远距离
1.324307E-6 低风险 0.37
CDM_260906-011105-254906-918621
2026-09-06T
01:11:35+0000
2.865 km
极远距离
1.2502E-6 低风险 0.37
CDM_260904-130005-254905-719321
2026-09-04T
13:00:56+0000
2.843 km
极远距离
1.187164E-6 低风险 0.36
CDM_260905-002605-254905-876721
2026-09-05T
00:26:32+0000
2.926 km
极远距离
1.185821E-6 低风险 0.36
CDM_260904-134005-254906-583521
2026-09-04T
13:40:01+0000
2.608 km
极远距离
9.823496E-7 极低风险 0.35
CDM_260906-010005-254906-296421
2026-09-06T
01:00:59+0000
2.935 km
极远距离
9.605594E-7 极低风险 0.35
CDM_260905-012205-254906-584021
2026-09-05T
01:22:50+0000
3.000 km
极远距离
8.335547E-7 极低风险 0.33
CDM_260905-074305-254905-809921
2026-09-05T
07:43:33+0000
2.872 km
极远距离
3.455774E-7 极低风险 0.26